Vorticity
9 7 6 6 6 7 8 8 8 7 9 6 6 6 6 6 6 6 7 8 9 7
5 5 5 7 8 7 5 1 3 6 6 10 9 9 9 9 9 9 9 7 5 4
4 7 6 5 2 3 3 3 2 5 8 15 10 8 8 9 9 7 5 4 3 5
5 5 4 3 5 5 4 1 -3 4 3 15 12 8 9 9 5 2 4 3 4 3
3 4 4 5 5 4 2 1 3 3 5 21 12 10 8 4 2 -2 3 6 7 8
4 4 3 3 3 4 3 10 4 8 15 17 11 8 5 3 -1 -2 6 10 10 8
3 3 3 4 5 6 4 5 9 2 19 15 8 5 5 -3 -3 1 9 8 10 12
2 4 4 5 5 5 3 10 3 12 17 10 7 8 5 1 5 -2 10 5 12 18
4 4 5 7 2 -0 14 17 -4 17 14 9 5 7 0 2 6 9 4 9 15 9
5 5 1 2 1 13 24 -4 15 15 10 5 3 4 4 5 11 3 10 14 7 11
5 1 -1 4 16 13 1 9 11 7 3 -0 6 7 11 10 5 9 12 6 12 12
0 -1 8 14 20 -8 10 10 11 7 1 4 3 9 7 4 10 11 6 19 15 5
2 14 15 19 -14 20 12 8 8 8 1 10 10 8 4 11 9 9 16 10 3 0
8 13 10 5 16 9 8 9 3 6 11 7 8 5 3 9 13 13 12 6 -0 -3
Height
5811 5810 5811 5810 5809 5808 5807 5805 5804 5801 5799 5796 5792 5789 5785 5781 5778 5774 5771 5767 5763 5759
5803 5803 5802 5802 5801 5800 5798 5796 5795 5792 5789 5786 5782 5777 5774 5770 5766 5763 5759 5755 5750 5746
5793 5794 5793 5792 5791 5790 5788 5787 5784 5782 5779 5775 5771 5767 5762 5758 5755 5751 5747 5742 5737 5732
5785 5785 5784 5783 5781 5779 5777 5776 5773 5771 5767 5762 5758 5754 5750 5747 5743 5739 5734 5729 5724 5717
5775 5775 5774 5773 5771 5769 5767 5764 5762 5759 5755 5750 5746 5742 5739 5735 5731 5726 5721 5715 5708 5702
5765 5764 5763 5761 5760 5758 5756 5754 5750 5746 5741 5737 5733 5729 5726 5722 5717 5712 5706 5701 5694 5688
5755 5753 5752 5750 5748 5746 5744 5740 5736 5732 5728 5724 5720 5717 5713 5709 5704 5698 5692 5685 5679 5672
5743 5742 5741 5739 5737 5733 5729 5725 5721 5718 5714 5711 5708 5704 5700 5695 5689 5682 5676 5669 5662 5656
5731 5730 5728 5725 5723 5719 5715 5711 5708 5704 5700 5697 5694 5690 5686 5680 5674 5668 5662 5656 5647 5640
5718 5717 5714 5711 5708 5704 5700 5697 5693 5689 5685 5682 5678 5675 5671 5665 5659 5653 5646 5640 5633 5626
5704 5702 5699 5696 5693 5690 5687 5683 5679 5675 5671 5667 5663 5659 5655 5650 5644 5638 5631 5625 5617 5611
5688 5686 5684 5681 5679 5676 5672 5668 5664 5659 5655 5651 5647 5642 5637 5633 5628 5621 5615 5607 5600 5593
5673 5671 5669 5666 5664 5660 5656 5652 5648 5644 5640 5636 5631 5626 5622 5617 5612 5607 5601 5594 5586 5578
5658 5656 5653 5651 5647 5644 5640 5637 5633 5628 5624 5618 5614 5609 5604 5598 5594 5590 5585 5578 5572 5563